[[{"header":{"parameterUnit":"m.s-1","parameterCategory":1,"la1":30.2991,"la2":30.254,"lo1":-89.0895,"lo2":-89.0444,"dy":0.0017,"dx":0.0017,"nx":28,"ny":28,"refTime":"2025-06-14T21:00:00:Z","depth":0,"parameterNumber":2,"parameterNumberName":"U-component_of_WINDS"},"data":[0,0,0,0,0,0,0,0,0,0,0,0,0,0,0,0,0,0,0,0,0,0,0,0,0,0,0,0,0,0,0,0,0,0,0,0,0,0,0,0,0,0,0,0,0,0,0,0,0,0,0,0,0,0,0,0,0,0,2.5304,2.5305,0,2.5367,2.5367,2.5368,2.537,2.5369,2.5368,2.5368,2.5436,2.5439,2.5441,0,0,0,0,0,0,0,0,0,0,0,0,0,2.519,2.5192,2.5304,2.5305,2.5306,2.5366,2.5367,2.5368,2.537,2.5369,2.5368,2.5367,2.5436,2.5439,2.5442,0,0,0,0,0,0,0,0,0,0,0,0,0,2.5245,2.5193,2.5304,2.5314,2.5315,2.5366,2.5367,2.5368,2.537,2.5369,2.5368,2.5367,2.5435,2.5438,2.5442,2.5489,0,0,2.5454,2.5456,0,0,0,0,0,0,0,0,2.5242,2.5249,2.5311,2.5313,2.5315,2.5359,2.5352,2.5409,2.5371,2.535,2.5368,2.5366,2.5412,2.5418,2.5432,2.5492,2.5495,2.5454,2.5457,2.5458,2.5459,0,0,0,0,0,0,0,2.5238,2.5246,2.5329,2.5312,2.5314,2.5316,2.5323,2.5363,2.5387,2.5351,2.5351,2.5359,2.5413,2.5428,2.5434,2.5496,2.5454,2.5457,2.546,2.5461,2.5598,2.5599,0,0,0,0,0,0,2.5231,2.5243,2.5327,2.5331,2.5274,2.5319,2.5326,2.5346,2.5386,2.5391,2.536,2.5358,2.5422,2.5429,2.5436,2.5493,2.5458,2.5462,2.5464,2.5596,2.5598,2.56,0,0,0,0,0,0,2.5229,2.5239,2.5324,2.5287,2.5298,2.5322,2.5345,2.5348,2.5364,2.5392,2.5397,2.5371,2.5422,2.5431,2.5475,2.5496,2.5463,2.5467,2.5595,2.5597,2.5599,2.5608,0,0,0,0,0,0,2.5226,2.5238,2.5255,2.5287,2.53,2.5361,2.5346,2.535,2.537,2.5369,2.5404,2.5409,2.5422,2.547,2.5479,2.55,2.547,2.5593,2.5596,2.5598,2.5606,2.561,2.5613,0,0,0,0,0,2.5222,2.5256,2.5256,2.5266,2.5322,2.5362,2.537,2.5382,2.5371,2.5389,2.5408,2.5408,2.5492,2.5474,2.5485,2.5508,2.5592,2.5595,2.5598,2.5604,2.5609,2.5613,0,0,0,0,0,0,2.5228,2.5261,2.5261,2.5307,2.5331,2.5363,2.5386,2.5387,2.5417,2.5415,2.543,2.5438,2.5483,2.55,2.548,2.5555,2.5541,2.5546,2.5542,2.5547,2.555,2.5545,2.5473,0,0,0,0,0,2.5234,2.5263,2.5291,2.5329,2.5341,2.5361,2.538,2.5387,2.5414,2.5425,2.5447,2.5474,2.5506,2.5528,2.5559,2.5608,2.5616,2.5629,2.5633,2.5636,2.564,2.5667,2.5673,2.5609,2.5609,2.5609,0,0,2.5248,2.527,2.5288,2.5331,2.5351,2.5381,2.537,2.5403,2.5427,2.543,2.5473,2.549,2.5522,2.5569,2.5591,2.5584,2.566,2.564,2.5642,2.5645,2.5671,2.5677,2.5682,2.5611,2.5611,2.5611,0,0,2.5289,2.5308,2.5342,2.5362,2.5392,2.5405,2.5412,2.5443,2.5454,2.5497,2.55,2.5529,2.5585,2.5607,2.5626,2.5674,2.5676,2.5685,2.5704,2.573,2.5735,2.574,2.5757,2.5763,2.5689,2.5689,2.5689,0,2.5303,2.5348,2.5359,2.5392,2.5411,2.5414,2.5448,2.5467,2.5507,2.552,2.5513,2.5582,2.5604,2.5655,2.5667,2.5682,2.5692,2.568,2.5733,2.5738,2.5743,2.5759,2.5765,2.569,2.569,2.569,2.5689,0,2.5364,2.5395,2.5419,2.5454,2.5476,2.551,2.5527,2.5548,2.5553,2.5567,2.5611,2.5637,2.5673,2.5686,2.5693,2.5739,2.5734,2.573,2.5716,2.5749,2.5765,2.5771,2.5691,2.5691,2.569,2.569,0,0,2.541,2.5451,2.546,2.5476,2.5509,2.5534,2.5568,2.5602,2.5619,2.5647,2.5676,2.5722,2.5718,2.5739,2.5748,2.5771,2.5808,2.5764,2.5765,2.5771,2.586,2.5863,2.587,2.5809,2.581,2.5811,2.5857,0,2.5455,2.5513,2.5523,2.5575,2.5604,2.5607,2.5637,2.5661,2.5675,2.5703,2.5719,2.5752,2.5744,2.5757,2.5779,2.5798,2.5826,2.5795,2.5837,2.5838,2.5828,2.5878,2.5882,2.5924,2.5864,2.5865,2.5866,0,2.5514,2.5541,2.5594,2.5623,2.5636,2.5662,2.5693,2.572,2.5747,2.5756,2.5779,2.5785,2.5822,2.5806,2.5857,2.5836,2.5854,2.5865,2.5867,2.5872,2.5854,2.5884,2.5938,2.5944,2.5876,2.5875,2.5874,0,2.5542,2.5592,2.563,2.5644,2.5678,2.5696,2.5712,2.5738,2.5758,2.5786,2.5799,2.5832,2.585,2.5876,2.5891,2.5879,2.5941,2.5927,2.595,2.595,2.5963,2.5962,2.602,2.5975,2.5975,2.5975,2.5975,0,2.559,2.5623,2.5643,2.5666,2.5703,2.5716,2.5752,2.5768,2.5791,2.5819,2.5824,2.585,2.5869,2.5898,2.591,2.595,2.5959,2.5967,2.597,2.5966,2.5965,2.5978,2.5975,2.5976,2.5976,2.5976,2.5975,0,2.5627,2.5642,2.5684,2.5712,2.572,2.5746,2.5772,2.5795,2.5809,2.5844,2.5853,2.5875,2.5909,2.5927,2.5971,2.5979,2.6024,2.6025,2.6014,2.6015,2.6036,2.6034,2.6105,2.6115,2.6063,2.6064,2.6064,0,2.5657,2.5682,2.5712,2.573,2.5745,2.5775,2.5794,2.5808,2.5828,2.5861,2.5881,2.5915,2.5943,2.5998,2.6019,2.6052,2.6054,2.6077,2.6059,2.6055,2.6054,2.6052,2.6055,2.608,2.608,2.6081,2.6081,0,2.5707,2.5713,2.574,2.577,2.5792,2.5817,2.5841,2.5856,2.5873,2.5896,2.593,2.5952,2.5995,2.6029,2.6063,2.6081,2.6084,2.6086,2.6093,2.609,2.6082,2.6086,2.6022,2.6085,2.6084,2.6084,2.6084,2.6084,2.5741,2.5763,2.5788,2.5818,2.5837,2.5859,2.5882,2.5899,2.5927,2.5962,2.5969,2.6005,2.6032,2.6078,2.6097,2.6126,2.6122,2.6132,2.6134,2.6137,2.6137,2.6077,2.6133,2.6133,2.6133,2.6133,2.6133,0,2.5791,2.5807,2.5834,2.5867,2.5891,2.589,2.5917,2.5937,2.5968,2.5993,2.6019,2.6059,2.6092,2.6115,2.6149,2.6168,2.617,2.6176,2.6175,2.6178,2.614,2.613,2.6173,2.6173,2.6173,2.6173,2.6173,2.6173,2.582,2.5857,2.5866,2.5913,2.5929,2.5963,2.5978,2.5999,2.6018,2.6061,2.6087,2.6102,2.6126,2.6161,2.6192,2.6198,2.621,2.6216,2.6222,2.6186,2.6181,2.6177,2.6168,2.6219,2.6219,2.6259,2.6259,2.6259]},{"header":{"parameterUnit":"m.s-1","parameterCategory":1,"la1":30.2991,"la2":30.254,"lo1":-89.0895,"lo2":-89.0444,"dy":0.0017,"dx":0.0017,"nx":28,"ny":28,"refTime":"2025-06-14T21:00:00:Z","depth":0,"parameterNumber":3,"parameterNumberName":"V-component_of_WINDS"},"data":[0,0,0,0,0,0,0,0,0,0,0,0,0,0,0,0,0,0,0,0,0,0,0,0,0,0,0,0,0,0,0,0,0,0,0,0,0,0,0,0,0,0,0,0,0,0,0,0,0,0,0,0,0,0,0,0,0,0,2.1628,2.1628,0,2.1626,2.1626,2.1626,2.1616,2.1616,2.1616,2.1615,2.1612,2.1612,2.1612,0,0,0,0,0,0,0,0,0,0,0,0,0,2.1624,2.1624,2.1628,2.1628,2.1628,2.1626,2.1626,2.1626,2.1616,2.1616,2.1616,2.1615,2.1612,2.1612,2.1612,0,0,0,0,0,0,0,0,0,0,0,0,0,2.1624,2.1624,2.1628,2.1623,2.1623,2.1626,2.1626,2.1626,2.1616,2.1616,2.1615,2.1615,2.1612,2.1612,2.1612,2.162,0,0,2.1613,2.1613,0,0,0,0,0,0,0,0,2.1624,2.1624,2.1624,2.1623,2.1623,2.1621,2.1623,2.1624,2.1616,2.1619,2.1615,2.1615,2.1615,2.1615,2.1615,2.162,2.162,2.1613,2.1613,2.1613,2.1613,0,0,0,0,0,0,0,2.1624,2.1624,2.1627,2.1624,2.1623,2.1621,2.162,2.1623,2.1619,2.1618,2.1618,2.1618,2.1615,2.1615,2.1615,2.162,2.1613,2.1613,2.1613,2.1613,2.1632,2.1633,0,0,0,0,0,0,2.1625,2.1624,2.1627,2.1627,2.1623,2.1621,2.1621,2.1622,2.1619,2.1618,2.1618,2.1617,2.1615,2.1615,2.1615,2.1625,2.1613,2.1613,2.1613,2.1632,2.1632,2.1633,0,0,0,0,0,0,2.1625,2.1625,2.1628,2.1626,2.1626,2.1622,2.1623,2.1622,2.1622,2.1618,2.1617,2.1619,2.1615,2.1615,2.1619,2.1624,2.1613,2.1613,2.1631,2.1632,2.1633,2.1644,0,0,0,0,0,0,2.1625,2.1625,2.1628,2.1626,2.1626,2.1632,2.1623,2.1622,2.1623,2.1622,2.1619,2.1618,2.1614,2.1619,2.162,2.1625,2.1613,2.1631,2.1632,2.1632,2.1643,2.1645,2.1647,0,0,0,0,0,2.1624,2.1631,2.1628,2.1629,2.163,2.1632,2.1632,2.1628,2.1623,2.1626,2.1624,2.1619,2.1624,2.162,2.162,2.1625,2.163,2.1631,2.1632,2.1642,2.1645,2.1647,0,0,0,0,0,0,2.1633,2.163,2.1627,2.1633,2.1633,2.1631,2.1634,2.163,2.1631,2.163,2.1624,2.1624,2.1629,2.1628,2.1623,2.1633,2.1626,2.1627,2.1634,2.1636,2.1638,2.1638,2.1614,0,0,0,0,0,2.1636,2.1638,2.1636,2.1641,2.1642,2.1638,2.1639,2.1636,2.1635,2.1635,2.1633,2.1632,2.1634,2.1635,2.1636,2.1643,2.1643,2.1647,2.1649,2.165,2.1651,2.1655,2.1657,2.1636,2.1636,2.1636,0,0,2.1641,2.164,2.1642,2.1643,2.1643,2.1646,2.1638,2.1641,2.1643,2.1635,2.164,2.1638,2.1637,2.1643,2.1646,2.1642,2.1657,2.1651,2.1653,2.1652,2.1657,2.1659,2.166,2.1636,2.1636,2.1636,0,0,2.1652,2.1652,2.1657,2.1657,2.1656,2.1654,2.1656,2.1654,2.1653,2.1658,2.1652,2.1655,2.1657,2.1657,2.1657,2.1671,2.1666,2.1671,2.168,2.1684,2.1686,2.1687,2.1692,2.1694,2.1672,2.1672,2.1672,0,2.1658,2.1663,2.1659,2.1663,2.1664,2.1659,2.1664,2.1664,2.1664,2.1665,2.1661,2.1665,2.1664,2.167,2.1674,2.1674,2.1676,2.1671,2.1686,2.1687,2.1689,2.1693,2.1695,2.1673,2.1673,2.1673,2.1673,0,2.1671,2.1675,2.1679,2.168,2.1681,2.1686,2.1683,2.1685,2.1682,2.1681,2.1686,2.1685,2.1686,2.1687,2.1684,2.1694,2.1692,2.1687,2.168,2.1691,2.1696,2.1698,2.1674,2.1673,2.1673,2.1673,0,0,2.1686,2.1687,2.1688,2.1689,2.1689,2.1692,2.1697,2.1699,2.1701,2.1701,2.1705,2.1709,2.1705,2.1705,2.1702,2.1706,2.1717,2.1701,2.1701,2.1704,2.1728,2.1732,2.1734,2.1715,2.1715,2.1715,2.1728,0,2.1697,2.1705,2.1703,2.1711,2.1715,2.171,2.1714,2.1715,2.1714,2.1717,2.1715,2.1718,2.1713,2.1713,2.1717,2.1715,2.1722,2.1714,2.1718,2.1718,2.1718,2.1736,2.1739,2.1752,2.173,2.173,2.1731,0,2.171,2.1713,2.1721,2.1722,2.1724,2.1728,2.173,2.1733,2.1734,2.1733,2.1734,2.1731,2.1736,2.1729,2.1736,2.1731,2.1732,2.1732,2.1732,2.1732,2.1725,2.1736,2.1755,2.1757,2.1733,2.1733,2.1733,0,2.172,2.1726,2.1732,2.1733,2.1734,2.1737,2.1738,2.1739,2.1741,2.1743,2.1744,2.1746,2.1748,2.175,2.1747,2.1743,2.1755,2.1748,2.1754,2.1754,2.1756,2.1756,2.1776,2.1757,2.1757,2.1757,2.1757,0,2.1733,2.1738,2.1737,2.1741,2.1747,2.1745,2.1751,2.1751,2.1753,2.1756,2.1752,2.1756,2.1753,2.1756,2.1754,2.176,2.1761,2.176,2.176,2.1761,2.1761,2.1761,2.176,2.1758,2.1758,2.1758,2.1758,0,2.1745,2.1744,2.1751,2.1752,2.1753,2.1757,2.1758,2.1762,2.1761,2.1766,2.1767,2.1766,2.177,2.1768,2.1772,2.1771,2.1779,2.1777,2.1779,2.1778,2.1785,2.1784,2.1805,2.1808,2.1788,2.1789,2.1789,0,2.1752,2.1756,2.1759,2.1762,2.1763,2.1767,2.1769,2.1768,2.177,2.1773,2.1776,2.178,2.1783,2.179,2.1789,2.1792,2.179,2.1798,2.1791,2.1792,2.1791,2.179,2.1791,2.1799,2.1799,2.1799,2.1799,0,2.1765,2.1766,2.1769,2.1774,2.1777,2.178,2.1782,2.1785,2.1783,2.1786,2.1791,2.1793,2.1798,2.1802,2.1805,2.1806,2.1803,2.1802,2.1804,2.1804,2.1805,2.1805,2.1783,2.1801,2.1801,2.1801,2.1801,2.1801,2.1775,2.178,2.1782,2.1787,2.1789,2.1792,2.1796,2.1797,2.1801,2.1805,2.1804,2.1809,2.1811,2.1815,2.1817,2.1821,2.1818,2.182,2.182,2.1821,2.1822,2.1805,2.1821,2.1821,2.1821,2.1821,2.1821,0,2.1789,2.1791,2.1795,2.18,2.1804,2.1802,2.1805,2.1808,2.1813,2.1816,2.1819,2.1825,2.1829,2.183,2.1834,2.1837,2.1836,2.1838,2.1838,2.1838,2.1824,2.1823,2.1839,2.1839,2.1839,2.1839,2.1839,2.1839,2.1796,2.1803,2.1804,2.1813,2.1814,2.182,2.1823,2.1825,2.1828,2.1835,2.1838,2.1839,2.1841,2.1846,2.185,2.185,2.1851,2.1854,2.1854,2.1841,2.1839,2.1837,2.1835,2.1855,2.1855,2.1867,2.1867,2.1867]}]]